This is the latest recevied weather packets stored in our database for station/object DC0PP-10. If no packets are shown the sender has not sent any weather packets the latest 10 day(s).
| Time | Temp. | Humidity | Pressure | Rain* | Wind** | Luminosity | Snow |
|---|---|---|---|---|---|---|---|
| 1777571738 | 18.89° C | 24% | 1023.4 hPa | - | - | - | - |
| 1777570838 | 19.44° C | 25% | 1023.4 hPa | - | - | - | - |
| 1777569938 | 20° C | 23% | 1023.4 hPa | - | - | - | - |
| 1777569038 | 20° C | 23% | 1023.3 hPa | - | - | - | - |
| 1777568138 | 20.56° C | 23% | 1023.4 hPa | - | - | - | - |
| 1777567237 | 20.56° C | 23% | 1023.3 hPa | - | - | - | - |
| 1777566337 | 21.11° C | 23% | 1023.4 hPa | - | - | - | - |
| 1777565437 | 21.11° C | 23% | 1023.3 hPa | - | - | - | - |
| 1777564537 | 21.67° C | 22% | 1023.2 hPa | - | - | - | - |
| 1777563637 | 21.67° C | 21% | 1023.3 hPa | - | - | - | - |
| 1777562737 | 21.67° C | 22% | 1023.4 hPa | - | - | - | - |
| 1777561836 | 21.67° C | 21% | 1023.4 hPa | - | - | - | - |
| 1777560936 | 22.22° C | 21% | 1023.3 hPa | - | - | - | - |
| 1777560036 | 21.67° C | 21% | 1023.6 hPa | - | - | - | - |
| 1777559136 | 22.22° C | 23% | 1023.6 hPa | - | - | - | - |
| 1777558236 | 22.22° C | 23% | 1023.7 hPa | - | - | - | - |
| 1777557336 | 21.67° C | 22% | 1023.8 hPa | - | - | - | - |
| 1777556435 | 21.67° C | 21% | 1023.8 hPa | - | - | - | - |
| 1777555535 | 21.11° C | 23% | 1023.8 hPa | - | - | - | - |
| 1777554634 | 20.56° C | 23% | 1023.9 hPa | - | - | - | - |
| 1777553734 | 20.56° C | 24% | 1023.9 hPa | - | - | - | - |
| 1777552834 | 20.56° C | 23% | 1024 hPa | - | - | - | - |
| 1777551937 | 20° C | 23% | 1024.1 hPa | - | - | - | - |
| 1777551037 | 20.56° C | 25% | 1024.3 hPa | - | - | - | - |
| 1777550137 | 20.56° C | 25% | 1024.2 hPa | - | - | - | - |
* Rain since midnight (hover to see other rain measurements)
** Current wind speed in m/s (hover to see current wind gust speed)